FW6582 Weather Reports


time (UTC)temp
F
wind
direction
speed
knots
gust
knots
rain 1hr
in
rain 24hr
in
rain mn
in
humidity
%
barometer
mb
20260507063517 34 113 0.9 3.5 0.00 0.50 0.00 78 1021.9
20260507062516 35 23 2.6 7.0 0.00 0.50 0.00 80 1022.0
20260507061516 33 293 2.6 5.2 0.00 0.50 0.00 76 1021.5
20260507060516 32 180 0.9 2.6 0.00 0.50 0.00 82 1021.3
20260507055516 31 180 1.7 5.2 0.00 0.50 0.50 82 1020.9
20260507054516 31 158 1.7 6.1 0.00 0.50 0.50 85 1020.9
20260507053516 31 135 1.7 4.3 0.00 0.50 0.50 86 1021.0
20260507052516 30 135 1.7 3.5 0.00 0.50 0.50 89 1021.1
20260507051516 30 135 1.7 3.5 0.00 0.50 0.50 91 1021.1
20260507050516 29 68 1.7 2.6 0.00 0.50 0.50 92 1020.6
20260507045516 29 68 0.9 2.6 0.00 0.50 0.50 93 1020.6
20260507044516 29 68 0.9 1.7 0.00 0.50 0.50 93 1020.7
20260507043516 29 0.0 1.7 0.00 0.50 0.50 93 1020.6
20260507042516 29 68 1.7 2.6 0.00 0.50 0.50 93 1020.7
20260507041516 29 135 1.7 4.3 0.00 0.50 0.50 93 1020.6
20260507040516 29 135 0.9 1.7 0.00 0.50 0.50 94 1020.5
20260507035515 29 135 0.9 3.5 0.00 0.50 0.50 93 1020.4
20260507034536 29 135 0.9 2.6 0.00 0.50 0.50 93 1020.4
20260507033516 29 135 0.9 3.5 0.00 0.50 0.50 93 1020.4
20260507032516 30 135 0.9 1.7 0.00 0.50 0.50 93 1020.4
20260507031516 30 0.0 1.7 0.00 0.50 0.50 93 1020.2
20260507030515 30 0.0 0.0 0.00 0.50 0.50 92 1020.3
20260507025516 30 0.0 0.0 0.00 0.50 0.50 92 1020.1
20260507024515 30 0.0 0.0 0.00 0.50 0.50 92 1020.1
20260507023516 31 0.0 0.0 0.00 0.50 0.50 92 1020.0
20260507022516 31 0.0 0.0 0.00 0.51 0.50 91 1019.9
20260507021515 31 0.0 0.0 0.00 0.51 0.50 91 1019.8
20260507020516 31 0.0 0.0 0.00 0.51 0.50 91 1019.7
20260507015515 32 0.0 0.0 0.01 0.51 0.50 90 1019.8
20260507014516 32 0.0 0.0 0.01 0.51 0.50 89 1020.3
20260507013515 32 0.0 0.0 0.01 0.51 0.50 89 1020.4
20260507012516 33 0.0 0.0 0.01 0.51 0.50 88 1020.5
20260507011516 33 0.0 0.0 0.02 0.51 0.50 88 1020.6
20260507010553 34 0.0 0.0 0.02 0.51 0.50 88 1021.2
20260507005536 33 0.0 2.6 0.02 0.50 0.49 87 1020.9
20260507004515 33 0.0 1.7 0.02 0.50 0.49 86 1020.8
20260507003516 34 0.0 0.9 0.03 0.50 0.49 87 1020.8
20260507002515 34 0.0 1.7 0.04 0.50 0.49 86 1021.4
20260507001518 34 0.0 0.0 0.04 0.49 0.48 86 1021.2
20260507000517 34 0.0 2.6 0.05 0.49 0.48 86 1021.4
20260506235518 34 135 0.9 3.5 0.05 0.48 0.47 86 1021.4
20260506234517 34 135 1.7 3.5 0.06 0.49 0.47 86 1020.8
20260506233518 34 113 1.7 3.5 0.06 0.48 0.46 86 1020.8
20260506232518 34 113 0.9 3.5 0.06 0.47 0.45 86 1020.8
20260506231517 34 113 1.7 7.0 0.06 0.46 0.44 87 1020.9
20260506230517 33 113 0.9 4.3 0.06 0.45 0.43 87 1020.9
20260506225517 33 113 2.6 3.5 0.07 0.44 0.42 86 1020.9
20260506224517 33 113 1.7 5.2 0.07 0.43 0.41 87 1021.0
20260506223538 33 113 1.7 3.5 0.08 0.42 0.40 89 1021.2
20260506222517 33 113 2.6 6.1 0.08 0.42 0.39 90 1021.3
20260506221517 33 113 2.6 5.2 0.09 0.42 0.38 90 1021.4
20260506220519 33 135 1.7 3.5 0.11 0.42 0.37 90 1021.4
20260506215519 33 135 2.6 7.8 0.11 0.40 0.35 89 1021.5
20260506214517 34 90 1.7 5.2 0.12 0.41 0.34 91 1021.4
20260506213518 34 90 2.6 5.2 0.11 0.40 0.32 93 1021.5
20260506212517 33 90 2.6 6.1 0.12 0.40 0.31 91 1021.5
20260506211517 34 113 1.7 3.5 0.11 0.38 0.29 91 1022.0
20260506210517 35 68 0.9 4.3 0.09 0.36 0.26 93 1022.2
20260506205537 35 68 0.9 3.5 0.08 0.35 0.24 94 1022.3
20260506204517 35 45 1.7 3.5 0.07 0.34 0.22 94 1022.4
20260506203517 35 0.0 2.6 0.06 0.34 0.21 94 1023.0
20260506202517 35 0.0 1.7 0.05 0.33 0.19 95 1023.1
20260506201537 34 45 0.9 3.5 0.05 0.33 0.18 96 1022.7
20260506200518 34 45 0.9 2.6 0.05 0.33 0.17 96 1022.7
20260506195517 33 45 0.9 3.5 0.05 0.32 0.16 95 1022.7
20260506194517 33 45 0.9 3.5 0.06 0.31 0.15 95 1022.8
20260506193518 33 45 0.9 4.3 0.07 0.31 0.15 95 1022.8
20260506192515 33 23 1.7 7.0 0.07 0.30 0.14 95 1022.9
20260506191518 33 68 1.7 4.3 0.07 0.29 0.13 96 1022.5
20260506190517 33 68 1.7 5.2 0.07 0.28 0.12 95 1022.6
20260506185517 33 45 1.7 3.5 0.07 0.27 0.11 96 1022.6
20260506184517 33 45 4.3 8.7 0.06 0.25 0.09 95 1022.7
20260506183517 33 45 3.5 7.0 0.05 0.25 0.08 96 1022.8
20260506182517 33 45 4.3 7.8 0.05 0.24 0.07 96 1022.9
20260506181538 32 45 4.3 8.7 0.05 0.24 0.06 96 1022.8
20260506180517 32 23 3.5 12.2 0.04 0.23 0.05 96 1022.8
20260506175517 32 0 4.3 11.3 0.03 0.22 0.04 96 1022.7
20260506174558 32 0.0 0.0 0.02 0.22 0.03 95 1022.6
20260506173517 32 0.0 0.0 0.02 0.22 0.03 96 1022.6
20260506172517 32 0.0 0.0 0.01 0.21 0.02 95 1022.5
20260506171517 32 0.0 0.0 0.01 0.20 0.01 96 1022.5
20260506170517 32 0.0 0.0 0.01 0.20 0.01 96 1022.3
20260506165557 32 0.0 0.0 0.01 0.20 0.01 96 1022.1
20260506164517 32 0.0 0.0 0.01 0.20 0.01 96 1021.9
20260506163517 32 0.0 0.0 0.01 0.20 0.01 96 1021.7
20260506162518 32 0.0 0.0 0.01 0.20 0.01 96 1021.5
20260506161517 31 0.0 0.0 0.00 0.19 0.00 96 1021.5
20260506160537 31 0.0 0.0 0.00 0.19 0.00 96 1021.6
20260506155517 31 0.0 0.0 0.00 0.19 0.00 96 1021.4
20260506154557 31 0.0 0.0 0.00 0.20 0.00 96 1021.4
20260506153517 31 0.0 0.0 0.00 0.20 0.00 96 1021.4
20260506152517 31 0.0 0.0 0.00 0.20 0.00 96 1021.4
20260506151517 31 0.0 0.0 0.00 0.21 0.00 96 1021.2
20260506150517 31 0.0 0.0 0.00 0.21 0.00 96 1021.1
20260506145517 31 0.0 0.0 0.00 0.21 0.00 96 1020.9
20260506144517 31 0.0 0.0 0.00 0.21 0.00 96 1020.8
20260506143517 31 0.0 0.0 0.00 0.21 0.00 96 1020.8
20260506142517 31 0.0 0.0 0.00 0.22 0.00 96 1020.5
20260506141517 31 0.0 0.0 0.00 0.22 0.00 96 1020.0
20260506140518 31 0.0 0.0 0.00 0.22 0.00 96 1020.0
20260506135537 30 0.0 0.0 0.00 0.23 0.00 96 1020.0
20260506134517 31 0.0 0.0 0.00 0.23 0.00 96 1019.8
20260506133517 30 0.0 0.0 0.00 0.23 0.00 96 1019.7
20260506132537 30 0.0 0.0 0.00 0.23 0.00 96 1019.5
20260506131517 30 0.0 0.0 0.00 0.24 0.00 96 1019.4
20260506130517 30 0.0 0.0 0.00 0.24 0.00 96 1019.3
20260506125517 30 0.0 0.0 0.00 0.24 0.00 96 1018.9
20260506124517 30 0.0 0.0 0.00 0.24 0.00 95 1018.7
20260506123517 30 0.0 0.0 0.00 0.24 0.00 95 1018.6
20260506122537 30 0.0 0.0 0.00 0.24 0.00 96 1018.5
20260506121517 31 0.0 0.0 0.00 0.24 0.00 96 1019.1
20260506120517 30 0.0 0.0 0.00 0.24 0.00 96 1019.0
20260506115517 30 0.0 0.0 0.00 0.25 0.00 96 1019.0
20260506114517 30 0.0 0.0 0.00 0.25 0.00 96 1018.9
20260506113517 30 0.0 0.0 0.00 0.26 0.00 96 1018.7
20260506112517 30 0.0 0.0 0.00 0.26 0.00 96 1018.9
20260506111517 29 0.0 0.0 0.00 0.27 0.00 87 1018.3
20260506110517 29 0.0 0.0 0.00 0.27 0.00 87 1018.3
20260506105517 29 0.0 0.0 0.00 0.27 0.00 87 1018.3
20260506104517 29 0.0 0.0 0.00 0.27 0.00 87 1018.8
20260506103517 29 0.0 0.0 0.00 0.27 0.00 87 1018.7
20260506102517 29 0.0 0.0 0.00 0.27 0.00 87 1018.7
20260506101517 29 0.0 0.0 0.00 0.27 0.00 87 1018.6
20260506100517 29 0.0 0.0 0.00 0.27 0.00 87 1018.6
20260506095517 29 0.0 0.0 0.00 0.27 0.00 87 1018.6
20260506094517 29 0.0 0.0 0.00 0.27 0.00 87 1018.3
20260506093517 29 0.0 0.0 0.00 0.27 0.00 87 1018.2
20260506092517 29 0.0 0.0 0.00 0.27 0.00 86 1018.1
20260506091517 30 0.0 0.0 0.00 0.27 0.00 86 1018.0
20260506090517 30 0.0 0.0 0.00 0.27 0.00 86 1018.0
20260506085517 30 0.0 0.0 0.00 0.27 0.00 86 1017.7
20260506084518 30 0.0 0.0 0.00 0.27 0.00 96 1018.3
20260506083517 31 0.0 0.0 0.00 0.27 0.00 96 1018.4
20260506082517 31 0.0 0.0 0.00 0.27 0.00 95 1018.4
20260506081517 31 0.0 0.0 0.00 0.27 0.00 95 1018.9
20260506080517 31 0.0 0.0 0.00 0.27 0.00 95 1018.9
20260506073517 31 0.0 0.0 0.00 0.27 0.00 95 1018.4
20260506072537 31 0.0 0.0 0.00 0.27 0.00 95 1018.5
20260506071557 31 0.0 0.0 0.00 0.27 0.00 95 1018.2
20260506070517 31 0.0 0.0 0.00 0.27 0.00 95 1018.0